Tracking 29892 objects as of 21-Nov-2024
HD Live streaming from Space Station
objects crossing your sky now

STARLINK-30188

Track STARLINK-30188 now!
10-day predictions
STARLINK-30188 is classified as:


NORAD ID: 57432
Int'l Code: 2023-105C
Perigee: 565.6 km
Apogee: 566.8 km
Inclination: 43.0 °
Period: 95.8 minutes
Semi major axis: 6937 km
RCS: Unknown
Launch date: July 24, 2023
Source: United States (US)
Launch site: AIR FORCE EASTERN TEST RANGE (AFETR)
Your satellite tracking list
Your tracking list is empty




NASA's NSSDC Master Catalog

Two Line Element Set (TLE):
1 57432U 23105C   24325.42056203  .00002610  00000-0  20822-3 0  9996
2 57432  43.0009 319.0910 0000840 261.3394  98.7354 15.02534853 74184
Source of the keplerian elements: AFSPC